Showing default

DODGE 1, 2867

Orbit data source: Space-Track

DODGE 1, 2867 is a payload satellite owned by USN NAVAIR (US) in GEO that was launched on Sat, 01 Jul 1967 UTC via a TITAN IIIC launch vehicle from the Air Force Eastern Test Range (AFETR). Payload-class satellites include a variety of spacecraft equipped with specific instruments for various scientific and technological missions. These include communications satellites like Starlink; space stations such as the ISS; scientific satellites like the Hubble; Earth observation satellites from companies like Planet Labs, Umbra, and HawkEye 360; GPS; miniature CubeSats for education and research; and military/defense satellites.

Not visible in the next 10 days
Identifier
2867, 1967-066F
Orbit
GEO
Country
Flag of USUS
Related business
Manufacturer
APL
Mission
Defense Technology
Bus & Motor
DODGE, Unknown motor
Mass
195 kg wet, 195 kg dry
Launch date (UTC)
1967-07-01 (58 years ago)
Launch vehicle
TITAN IIIC
Launch site
Air Force Eastern Test Range (AFETR)
Object type
Payload
Rocket body
Debris
Shape & HBR
Step Cyl + 2 Rod, 23.0 m
Radar Cross Section
2.570 m², Large (>1 m²)

Expand to show TLE details & history
Last TLE update: 20 hours ago

TLE from 20 hours ago
0 DODGE 1
1 02867U 67066F   25257.59432495 -.00000108  00000-0  00000-0 0  9990
2 02867   1.8627 108.0712 0053408 176.5739 327.9843  1.09168189130379
Epoch: 2025-09-14T14:15Z
TLE epoch observation values (Epoch: 2025-09-14T14:15:49.675Z)
Latitude
1.1076°
Longitude
44.54315°
Altitude
33,283.539 km
Speed
3.177 km/s
True Right ascension
16h 49m 14s
True Declination
1° 06' 23"
Sunlit
Object was in daylight at epoch
Visualization orbit readout
Latitude
Unknown
Longitude
Unknown
Altitude
Unknown
Speed
Unknown
Apparent Right ascension
Unknown
Apparent Declination
Unknown
Sunlit
N/A
Visualization observer readout
Local Sidereal Time
02:46:34
Azimuth
Unknown
Elevation
Unknown
Doppler factor
Unknown
Orbital elements
Apogee altitude
33,677.475 km
Perigee altitude
33,251.89 km
Semi-major axis
39,842.82 km
Eccentricity
0.00534
Inclination
1.8627°
RAAN
108.0712°
Arg. of periapsis
176.5739°
True anomaly
327.658°
Mean anomaly
327.9843°
Eccentric anomaly
327.82133°
Mean motion
0.27291 °/min
Orbital period
1,319.12 mins
BSTAR
0
Loading maneuver chart data...
Computing Atmospheric mass density...
Loading historical data...
Loading historical data...
Loading historical data...
Loading historical data...
Loading historical data...
Loading historical data...
Loading historical data...

Documentation

Showing up to 5 results
|